Location: *
(55.6049°S, 142.1985°W)
Time: 00:29:37
(UTC+00:00)

Cosmos 1763 Rocket - Pass Details

Date: 12 May 2021
Orbit: 733 x 780 km, 74.0° (Epoch: 18 June)

Event Time Altitude Azimuth Distance (km) Brightness Sun altitude
Exits shadow 15:05:37 15° 212° (SSW) 2,028 5.3 -17.7°
Maximum altitude 15:10:06 72° 293° (WNW) 831 3.5 -17.1°
Drops below altitude 10° 15:15:22 10° 17° (NNE) 2,326 6.3 -16.4°
Sets 15:17:44 0° 18° (NNE) 3,238 7.1 -16.1°
